Regional Weather Roundup
Issued by NWS

Home | Current Version | Previous Version | Graphics & Text | Print | Product List | Glossary On
Versions: 1 2 3 4 5 6 7 8 9 10 11 12 13 14 15 16 17 18 19 20 21 22 23 24 25 26 27 28 29 30 31 32 33 34 35 36 37 38 39 40 41 42 43 44 45 46 47 48 49 50
000
ASUS43 KIND 241559
RWRIN

WEATHER ROUNDUP FOR INDIANA
NATIONAL WEATHER SERVICE INDIANAPOLIS IN
1200 PM EDT SUN MAY 24 2015

NOTE: "FAIR" INDICATES FEW OR NO CLOUDS BELOW 12,000 FEET WITH NO
SIGNIFICANT WEATHER AND/OR OBSTRUCTIONS TO VISIBILITY.

* - STATION DOES NOT REPORT WEATHER SUCH AS PRECIPITATION OR FOG.

+ - STATION NOT QUALITY CONTROLLED BY THE NATIONAL WEATHER SERVICE.
    USE DATA WITH CAUTION...ESPECIALLY DEWPOINT AND RELATIVE
    HUMIDITY OBSERVATIONS.

INZ001>003-010>013-019-020-241700-
NORTHWEST INDIANA

CITY           SKY/WX    TMP DP  RH WIND       PRES   REMARKS
GARY /AIRPORT/ CLOUDY    73  54  49 SE12      30.16F

$$

LMZ046-743>745-241700-
SOUTHERN LAKE MICHIGAN

STATION/POSITION TIME  TEMP    WIND        PRES    WAVE
                       AIR SEA DIR/SP/G            HT
                 (UTC) (F)     (DEG/KT/KT) (MB)    (FT)
BURNS HARBOR     1500   70     130/  7/ 11 1022.0F
MICHIGAN CITY    1500   67     110/  7/  8   N/A
5NW MICH CITY    1500   61 53  140/  6/  6   N/A     0

$$

INZ004-005-014>016-021>024-241700-
NORTH CENTRAL INDIANA

CITY           SKY/WX    TMP DP  RH WIND       PRES   REMARKS
ELKHART        CLOUDY    72  50  46 CALM      30.21F
GOSHEN         CLOUDY    72  55  55 S9        30.20F
SOUTH BEND     CLOUDY    71  52  50 S8        30.20F

$$

INZ006>009-017-018-025>027-241700-
NORTHEAST INDIANA

CITY           SKY/WX    TMP DP  RH WIND       PRES   REMARKS
ANGOLA *+      MOSUNNY   70  54  56 S6        30.23F
FORT WAYNE     CLOUDY    75  56  51 S14       30.23F

$$

INZ028-029-035-036-043>045-051>053-241700-
WEST CENTRAL INDIANA

CITY           SKY/WX    TMP DP  RH WIND       PRES   REMARKS
GREENCASTLE +  MOSUNNY   77  54  44 S8G17     30.19F
LAFAYETTE      PTSUNNY   78  57  48 S12G17    30.15F
TERRE HAUTE    MOSUNNY   78  59  51 S13       30.16F

$$

INZ030>032-037>040-046>048-054>057-064-065-241700-
CENTRAL INDIANA

CITY           SKY/WX    TMP DP  RH WIND       PRES   REMARKS
GREENWOOD *+   MOSUNNY   79  48  34 S14G20    30.22F
INDIANAPOLIS   PTSUNNY   78  56  46 SW14      30.19F
-EAGLE CREEK   PTSUNNY   76  56  49 S8        30.19F
KOKOMO *+      CLOUDY    73  57  56 S12       30.20F
MT COMFORT *+  MOSUNNY   79  37  22 S14       30.21F
SHELBYVILLE    MOSUNNY   80  55  42 S16       30.21F

$$

INZ033-034-041-042-049-050-058-059-241700-
EAST CENTRAL INDIANA

CITY           SKY/WX    TMP DP  RH WIND       PRES   REMARKS
MUNCIE         PTSUNNY   76  55  48 S8        30.23F

$$

INZ060-061-067>069-081>083-085>088-241700-
SOUTHWEST INDIANA

CITY           SKY/WX    TMP DP  RH WIND       PRES   REMARKS
EVANSVILLE     SUNNY     79  57  46 S13       30.17F
HUNTINGBURG *+ MOSUNNY   79  55  44 S16       30.19F

$$

INZ062-063-066-070>080-084-089>092-241700-
SOUTH CENTRAL AND SOUTHEAST INDIANA

CITY           SKY/WX    TMP DP  RH WIND       PRES   REMARKS
BLOOMINGTON    MOSUNNY   78  55  44 S13G18    30.19F
MADISON *+     MOSUNNY   79  46  31 S13G22    30.27F
SEYMOUR +      MOSUNNY   82  54  36 S12       30.22F

$$



USA.gov is the U.S. government's official web portal to all federal, state and local government web resources and services.